User: anonymous   Login
Location: Wien
(48.2082°N, 16.3738°E)
Time: 08:23:53
(UTC+01:00)
Language:

NOAA 18 - Orbit

View from above orbital plane
View from above orbital plane
View from above satellite
View from above satellite

Ground track
Ground track

The orbit data is extracted from the following two-line orbital elements,

1 28654U 05018A   19083.84946291 +.00000052 +00000-0 +53350-4 0  9990
2 28654 099.1079 129.4850 0015064 061.9063 298.3629 14.12411257713303
Epoch (UTC): 24 March 2019 20:23:13
Eccentricity: 0.0015064
inclination: 99.1079°
perigee height: 840 km
apogee height: 862 km
right ascension of ascending node: 129.4850°
argument of perigee: 61.9063°
revolutions per day: 14.12411257
mean anomaly at epoch: 298.3629°
orbit number at epoch: 71330

The dashed part of the orbit path shows where the satellite is in the earth's shadow,  

DLR